Location: Chuathbaluk
(61.5726°N, 159.2454°W)
Time: 14:08:20
(UTC+00:00)

DELFI C3 - Pass Details

Date: 22 January 2021
Orbit: 531 x 550 km, 97.4° (Epoch: 04 March)

Event Time Altitude Azimuth Distance (km) Brightness Sun altitude
Exits shadow 05:58:26 45° 330° (NNW) 758 ? -25.5°
Drops below altitude 10° 06:01:18 10° 341° (NNW) 1,844 ? -25.8°
Sets 06:03:27 0° 344° (NNW) 2,744 ? -26.0°
